Location: Central Falls
(41.8900°N, 71.3929°W)
Time: 08:32:33
(UTC+00:00)

Tiros 1 despin weight - Pass Details

Date: 07 December 2023
Orbit: 581 x 624 km, 48.2° (Epoch: 29 February)

Event Time Altitude Azimuth Distance (km) Brightness Sun altitude
Rises 03:33:56 0° 296° (WNW) 2,798 - -66.6°
Reaches altitude 10° 03:36:12 10° 295° (WNW) 1,898 - -66.9°
Maximum altitude 03:40:32 74° 211° (SSW) 610 - -67.4°
Drops below altitude 10° 03:44:53 10° 126° (SE) 1,906 - -67.8°
Sets 03:47:10 0° 125° (SE) 2,811 - -68.1°
